sat.trackr.live / text

‹ back to catalog

STARLINK-5416

NORAD 54855 · 2022-177AM

PAYLOAD ACTIVE UNKNOWN

§ Identity

Operator
Country
US
Launch date
2022-12-28
Launch site
AFETR
Launch vehicle
Mass (kg)
RCS (m²)

Purposes: comms

External: N2YO · Heavens-Above · Gunter

§ Orbital elements

Epoch: 2026-09-20T22:23:46.124736Z

Period
94.27 min
Inclination
43.0049°
Eccentricity
0.0001542
Mean motion
15.27574534 rev/d
Perigee alt
482.0 km
Apogee alt
484.1 km
Semi-major
6,861.2 km
B*
-3.0283e-5
RAAN
98.6899°
Arg perigee
269.1236°
Mean anomaly
90.9439°
Rev number
20,695

§ Raw data

STARLINK-54161 54855U 22177AM  26263.93317274 -.00001095  00000+0 -30283-4 0  99972 54855  43.0049  98.6899 0001542 269.1236  90.9439 15.27574534206958

JSON: /api/v1/satellites/54855 · /tle

For live sub-satellite position, see the globe view (requires WebGL).

§ Visibility from observer

Set your observer location to see the next 7 days of passes ≥ 10°. The values pass through the URL so the page stays shareable.

No JS? Fill the form by hand. The geolocation button needs JavaScript.